Theta_e
347 342 342 341 340 341 341 342 340 339 340 341 339 334 331 331 334 335 332 321 313 314 315 320 323 324 323 320 323 325 327 329 335 340 343 343 342 342 343 343 344 344 344 344 344 343 343 342 341 341 340 339 340 340 337 335 334 332 334 335 336 338 338 339 339 340 340 341 341 341 342 342 342 342 341 341 340 339 339 339 339 339 339 339 339
346 343 345 341 340 341 341 343 340 340 341 341 338 333 332 332 334 334 330 320 314 315 316 321 322 324 326 323 325 330 334 337 341 342 343 343 343 344 344 344 344 344 344 344 343 343 342 342 343 342 341 340 340 339 336 334 332 330 331 334 335 337 338 338 337 337 338 339 340 340 341 341 341 341 341 341 340 340 339 338 338 338 339 339 339
341 343 346 343 339 340 341 343 342 342 342 341 337 333 332 333 335 334 330 319 314 316 317 321 321 326 330 329 331 336 339 341 343 343 344 344 344 344 344 344 343 343 343 343 342 342 341 341 340 339 339 340 340 338 336 333 330 329 331 333 335 337 338 338 337 337 337 338 339 339 340 340 341 341 340 340 339 339 339 338 337 338 338 338 338
340 342 346 345 340 340 341 343 343 343 342 341 336 333 333 334 335 334 328 317 315 317 318 321 320 328 334 334 336 339 341 342 343 344 344 344 344 344 343 344 343 343 342 341 340 338 336 332 330 329 331 333 337 339 336 332 328 329 331 333 335 336 338 338 337 336 336 337 338 338 339 340 341 341 340 339 339 339 338 337 337 337 337 336 337
341 340 344 346 343 343 342 343 344 343 343 340 336 334 334 335 335 334 326 315 316 318 319 320 321 331 336 336 339 340 342 343 344 344 345 345 345 344 344 343 343 343 341 339 335 331 326 324 325 326 326 324 331 336 335 331 326 327 331 331 333 335 337 338 338 338 337 336 336 336 337 339 340 340 340 339 339 339 338 337 336 336 336 336 336
341 339 342 345 346 346 345 345 345 344 343 339 336 335 335 336 335 333 323 315 318 319 321 322 325 334 337 337 339 340 341 343 343 343 344 345 345 344 344 344 343 343 340 336 333 330 327 328 331 330 327 323 327 331 333 331 323 324 329 329 331 332 334 335 336 337 337 336 335 334 334 336 339 339 339 339 338 338 338 337 336 335 334 334 334
341 342 343 345 348 348 346 346 345 345 343 339 337 335 335 336 335 332 320 315 319 320 323 325 329 336 336 337 339 339 341 342 343 343 344 344 344 344 344 344 343 342 341 337 336 336 334 334 334 333 330 326 326 329 330 328 320 320 326 327 329 328 329 330 331 334 334 334 334 332 330 334 337 338 338 338 338 338 338 337 337 335 333 332 331
344 345 345 346 348 348 347 346 346 344 342 339 336 335 336 336 336 329 318 317 320 320 324 328 333 337 337 338 339 339 340 342 343 343 344 344 344 344 343 343 341 341 339 337 337 338 337 336 335 334 332 326 322 324 326 323 317 319 323 324 326 326 328 330 332 333 333 333 333 331 330 334 337 338 338 338 338 337 337 337 336 334 334 332 331
346 347 345 345 347 348 348 347 346 344 341 338 336 336 337 337 335 326 318 319 322 322 326 332 335 337 338 339 340 340 341 342 343 343 344 343 343 343 342 341 341 339 337 334 335 336 336 336 335 333 332 325 317 318 321 319 316 319 323 325 326 327 330 333 333 333 333 333 333 332 333 336 337 337 337 336 336 335 335 334 334 334 334 333 332
346 346 344 345 347 348 348 346 345 343 340 338 337 337 337 337 334 323 319 323 324 327 332 336 337 338 339 341 341 342 342 343 343 343 344 343 343 342 341 341 340 338 334 332 334 335 336 336 334 331 328 321 315 315 316 316 317 321 324 326 328 331 333 333 332 333 333 333 333 334 334 335 336 338 337 335 334 333 333 332 333 333 333 332 331
346 345 343 343 346 347 346 345 344 342 339 338 337 338 337 336 331 321 323 328 328 333 337 338 339 339 340 341 341 342 342 343 343 344 344 343 343 342 341 340 339 337 332 330 332 333 335 333 330 326 321 316 314 314 314 316 319 322 325 328 332 333 334 332 331 332 332 332 332 333 332 334 335 337 336 335 335 334 333 332 332 332 331 331 330
346 346 342 343 346 346 345 344 342 341 339 339 338 337 336 334 325 320 328 331 332 338 340 339 339 339 340 341 341 342 342 343 344 343 343 343 343 342 340 339 337 334 330 329 329 331 333 331 326 321 316 314 313 314 316 319 323 326 329 332 334 334 334 332 331 332 331 331 332 332 331 333 335 335 336 335 334 334 333 333 332 331 331 330 330
346 346 342 342 345 345 343 342 341 340 339 339 338 336 333 329 320 323 332 333 335 339 339 339 339 339 341 342 342 342 342 343 343 343 343 342 342 341 340 339 336 331 329 328 329 331 333 330 323 317 314 313 315 318 322 325 328 330 332 333 334 334 335 333 332 332 331 331 331 331 331 332 334 335 335 334 333 333 333 332 332 331 330 330 330
345 345 342 340 343 343 341 340 340 340 339 338 337 332 328 324 319 325 333 334 336 338 338 339 338 339 341 342 342 341 342 342 342 343 342 342 342 340 339 337 334 329 328 328 329 330 331 328 320 316 314 316 321 325 328 330 331 332 333 334 333 334 334 333 333 332 332 331 330 330 331 332 333 334 334 333 333 333 332 331 331 330 330 330 330
345 344 340 338 341 341 340 339 339 338 338 336 332 327 325 323 321 325 330 331 333 337 338 339 338 338 340 342 342 341 341 342 342 343 342 342 341 340 339 335 331 329 328 328 330 330 329 325 318 315 314 320 328 330 331 332 332 333 334 334 333 334 334 333 333 332 332 329 328 330 331 331 331 332 333 333 332 332 331 331 330 330 330 329 329
346 343 337 337 341 341 340 339 337 335 333 330 326 324 324 324 324 324 325 325 329 336 339 339 339 339 339 340 341 341 341 341 342 342 341 341 340 340 339 334 329 329 329 329 330 330 329 326 318 314 316 324 331 331 332 332 333 334 334 334 335 336 334 333 333 332 330 327 327 329 330 330 331 331 332 332 331 331 331 330 330 330 329 329 328
346 343 338 339 342 341 339 336 333 330 327 326 323 322 323 324 324 323 324 325 330 336 339 339 340 339 339 339 341 341 340 341 341 341 340 340 340 339 338 333 329 330 330 330 330 330 330 328 320 313 316 326 331 331 332 333 333 334 333 334 335 335 334 333 333 332 330 328 329 329 330 331 331 331 332 331 331 331 331 330 330 329 329 328 328
345 342 340 342 342 340 338 334 331 328 326 325 323 323 324 323 324 328 330 331 334 337 338 339 339 339 339 339 340 340 340 341 340 340 339 339 339 338 338 333 329 330 330 331 331 331 331 329 323 314 315 324 331 331 332 333 333 333 334 335 335 335 333 333 333 332 331 329 329 329 329 330 331 332 332 332 331 331 331 330 329 329 328 328 328
343 342 341 340 339 338 337 335 332 329 327 327 328 328 326 327 331 335 336 334 334 335 337 338 339 339 339 339 339 339 339 339 339 339 339 338 338 337 338 333 329 330 330 331 332 331 331 330 326 317 313 320 328 331 333 333 333 333 334 334 334 336 334 333 333 332 331 329 328 330 332 332 332 333 332 333 332 331 330 330 329 328 328 328 328
343 342 341 339 337 337 336 335 334 330 328 330 332 332 331 333 336 337 338 336 334 334 335 336 338 338 339 339 338 339 338 338 338 338 338 337 337 337 337 334 329 329 330 331 332 331 331 331 328 320 314 315 324 330 332 333 333 334 335 334 334 335 334 333 333 332 331 328 329 332 333 333 332 332 332 332 331 330 330 329 329 328 327 327 328
343 342 342 340 339 337 336 336 335 332 331 333 333 334 334 336 337 337 338 337 336 335 333 334 335 336 337 338 338 338 337 336 337 337 337 337 337 337 336 335 331 329 329 330 332 332 331 331 328 322 316 316 325 331 333 334 335 336 335 335 335 336 334 334 334 333 331 328 330 333 333 333 332 332 331 330 330 329 329 328 329 328 328 327 327
342 343 342 341 341 338 337 337 335 335 336 335 333 335 337 335 335 337 337 337 337 336 334 333 334 335 335 335 334 334 334 334 334 334 335 336 336 336 336 334 332 330 329 329 331 332 332 331 329 325 318 321 330 332 333 335 335 335 335 336 336 336 334 334 334 334 332 328 329 331 331 331 331 331 330 329 328 328 328 327 328 327 327 327 326
341 342 343 342 341 339 339 337 336 338 338 337 334 334 335 333 333 335 335 336 336 335 334 334 334 333 331 331 333 335 336 336 334 334 335 335 333 333 335 334 332 331 329 329 329 332 333 332 330 327 321 323 331 332 334 335 335 336 335 335 335 335 334 334 334 334 332 329 327 329 330 330 330 330 329 328 328 328 327 327 327 326 326 326 326
340 342 343 342 341 340 341 339 338 340 339 339 336 332 331 332 334 334 334 333 333 333 334 335 336 335 331 331 337 339 339 339 337 338 338 337 335 331 332 333 333 331 330 329 328 330 332 333 332 329 324 323 328 332 334 333 334 335 334 334 335 335 334 335 334 333 332 329 327 328 329 329 330 330 329 329 328 328 327 326 327 326 326 326 325
341 342 343 343 342 342 342 340 340 342 340 341 338 331 331 335 336 336 334 331 329 332 336 338 338 340 335 332 338 340 340 341 339 340 341 339 338 335 332 331 331 331 330 329 328 328 330 332 333 330 327 327 328 331 332 331 333 336 335 333 335 336 335 334 334 333 332 328 326 326 328 330 329 329 328 328 328 327 326 326 326 326 326 326 325
341 342 342 343 343 342 342 341 341 342 341 342 337 333 336 338 338 337 336 333 332 334 338 339 338 340 339 334 335 338 340 341 340 341 342 340 339 339 337 332 328 330 331 329 329 328 328 330 332 332 330 330 333 334 334 334 334 335 337 333 333 336 334 333 334 333 332 328 326 327 328 329 329 328 328 328 328 327 326 325 325 325 326 326 325
341 342 342 342 342 342 342 341 341 341 342 341 337 336 340 339 338 338 336 336 336 336 338 339 338 340 340 337 336 338 339 341 340 340 341 340 340 339 339 336 330 327 329 330 330 330 329 328 330 332 331 331 334 336 337 337 336 335 336 333 332 335 333 333 334 333 332 329 327 327 328 329 329 328 327 328 328 327 327 326 325 325 326 326 325
342 341 342 342 341 342 342 341 341 341 341 341 337 338 342 340 338 338 338 339 339 338 339 339 339 339 340 339 338 339 339 340 340 340 340 340 340 339 338 338 335 330 329 328 329 330 329 328 328 329 331 332 331 335 337 338 337 335 336 333 332 335 334 334 333 332 332 329 327 325 328 329 328 328 327 328 328 328 329 327 326 326 326 326 325
343 342 342 342 342 342 342 342 342 341 341 341 339 339 341 340 339 339 339 340 339 339 340 339 340 340 340 340 339 339 340 340 340 339 340 340 340 339 338 337 337 335 334 332 330 329 329 329 331 330 332 334 331 334 337 337 337 334 335 333 331 334 334 333 333 332 331 330 327 324 326 329 328 329 329 329 329 329 329 327 327 326 326 326 324
343 343 342 342 343 343 343 343 342 342 341 340 340 339 340 340 340 340 340 340 341 340 340 340 340 340 340 340 340 339 340 340 340 339 339 339 340 339 339 338 336 336 336 336 334 331 331 332 333 332 334 336 334 334 337 337 336 333 334 334 331 333 334 333 333 332 332 332 329 325 325 327 328 329 329 329 330 329 327 326 326 325 326 326 324
344 343 342 342 343 343 343 343 342 342 341 341 341 339 340 341 340 340 340 341 342 341 341 341 341 341 340 340 340 339 340 340 340 340 339 338 339 339 340 339 338 336 335 336 335 332 332 333 334 333 332 336 336 336 337 336 335 333 333 333 332 333 334 333 333 332 332 332 331 329 327 326 327 328 329 330 330 328 327 326 326 325 325 325 324
345 344 344 343 343 343 342 342 341 341 342 343 342 342 342 341 341 341 340 340 341 341 341 341 341 340 340 340 339 339 340 339 339 340 340 338 338 338 339 339 338 336 335 335 335 332 331 333 334 334 333 335 337 336 337 335 334 333 331 333 334 333 333 333 333 332 333 333 333 333 327 325 327 328 329 330 329 327 327 327 327 326 325 325 325
345 345 344 344 343 343 343 342 342 342 342 343 344 344 343 343 343 342 341 341 341 341 341 341 340 340 340 339 339 339 339 339 338 339 339 339 339 338 337 338 338 337 336 335 334 333 333 334 335 335 334 336 337 336 337 336 334 332 330 332 334 333 333 333 333 333 334 334 334 333 328 324 325 327 329 329 328 327 328 328 327 326 325 325 324
346 346 345 344 344 344 344 343 342 343 343 344 345 344 343 344 343 343 342 341 341 341 341 340 340 340 340 339 338 337 337 337 337 338 338 339 339 339 337 337 337 337 337 336 335 334 334 334 334 336 335 335 337 336 337 337 335 333 331 331 333 333 333 334 333 334 334 334 334 333 330 325 324 326 329 328 327 327 328 328 327 326 325 325 324
346 347 346 345 345 345 344 344 344 344 344 344 344 344 344 344 343 343 342 341 341 341 341 340 339 339 338 338 338 337 337 337 337 337 338 339 339 339 337 337 338 337 337 337 336 336 335 334 334 335 335 335 336 336 336 337 335 334 332 332 333 332 333 334 333 334 334 334 333 333 331 328 326 327 328 328 327 326 327 328 327 326 325 325 324
346 346 346 346 345 345 345 345 345 344 344 344 344 343 343 343 343 342 341 341 341 340 340 340 339 338 338 338 338 338 338 337 337 337 337 338 338 337 337 337 337 338 338 338 337 336 335 335 334 334 335 334 334 336 336 336 335 334 334 334 333 331 331 332 334 334 334 334 333 332 332 331 330 328 326 327 326 325 326 327 327 325 325 325 325
345 345 345 344 344 344 344 344 344 344 344 343 343 343 343 343 342 341 341 341 340 339 339 339 339 338 338 338 338 338 337 337 337 336 336 336 337 337 337 337 337 338 338 338 337 336 335 335 334 334 334 333 333 335 335 335 335 335 334 334 333 331 331 332 333 334 334 334 333 333 332 331 332 330 327 326 324 323 325 326 326 324 324 325 325
343 344 344 343 343 343 344 343 343 343 342 342 342 342 342 342 341 341 341 340 339 339 339 339 339 338 338 338 337 337 336 336 336 336 336 335 336 336 336 337 337 337 337 337 336 336 336 335 334 334 333 332 331 333 334 335 335 334 334 333 333 332 331 332 333 333 334 334 334 333 333 332 332 332 329 328 324 321 324 326 325 323 323 325 324
342 343 343 343 343 343 343 343 343 342 342 342 342 341 342 342 341 341 341 340 339 339 339 339 338 338 337 337 337 336 336 337 336 336 336 335 336 336 335 335 336 336 336 335 335 334 335 335 335 334 333 332 332 332 333 334 334 334 334 333 332 332 331 331 332 333 333 334 334 333 333 333 332 332 330 330 327 321 322 324 321 322 324 324 323
343 343 343 342 341 341 342 343 343 342 342 342 342 342 341 341 341 340 341 341 340 339 339 339 338 338 337 336 336 336 336 336 336 336 336 335 335 335 335 334 335 336 336 335 334 334 334 334 335 334 334 333 333 332 332 333 333 332 332 332 333 332 331 331 332 333 332 333 334 334 334 333 332 331 330 331 329 322 321 322 321 322 325 324 323
344 343 343 342 341 341 341 342 342 342 342 341 342 341 341 341 341 340 340 341 340 340 340 340 339 339 338 337 337 337 336 336 336 336 336 336 335 335 334 334 335 335 336 335 334 334 333 333 333 334 334 334 334 333 332 332 332 332 331 331 331 331 331 331 332 333 332 332 334 334 334 333 331 331 330 330 330 325 323 324 323 323 324 324 324
344 343 343 342 342 342 341 341 340 341 341 340 340 339 339 341 340 341 341 341 341 340 341 341 341 340 339 339 338 337 337 336 337 336 336 336 336 335 334 334 334 335 335 335 334 334 334 332 332 333 334 335 334 333 332 332 332 332 331 331 331 331 330 331 332 332 332 333 333 334 334 332 331 331 330 330 330 328 326 326 326 325 324 324 324
344 344 344 343 342 342 341 340 340 341 340 338 340 340 340 340 340 340 339 340 340 340 340 340 340 340 340 340 338 338 338 338 337 336 336 336 336 335 334 333 334 335 335 335 335 334 334 334 333 333 333 335 335 334 333 332 332 331 331 333 334 333 332 331 332 332 332 333 333 333 333 332 331 330 331 330 330 330 329 327 328 327 325 324 324
344 343 343 342 341 341 341 339 339 340 340 339 339 339 339 338 338 337 336 337 337 338 338 338 339 339 339 339 338 337 338 337 337 336 336 336 336 336 335 334 333 334 335 335 335 334 334 335 334 334 334 334 334 334 334 333 333 332 332 333 333 334 336 334 332 332 332 332 331 332 333 333 332 331 331 330 330 330 330 328 328 328 327 325 323
343 342 342 342 341 340 340 340 339 339 340 339 339 338 337 337 338 337 337 338 338 338 338 338 338 337 338 339 337 336 336 335 335 336 337 336 336 336 336 335 333 334 335 335 335 335 334 335 335 335 334 334 334 334 334 333 333 333 332 332 332 334 337 334 333 333 332 331 330 331 332 332 332 331 330 330 330 331 331 329 329 329 328 327 325
342 342 342 342 341 340 340 340 340 339 340 339 339 339 338 338 339 339 338 339 339 339 339 339 339 338 338 338 337 336 335 335 336 336 337 337 337 337 336 336 335 335 335 335 335 335 335 335 335 335 334 334 334 333 334 333 333 333 332 332 333 334 334 332 334 334 332 331 331 331 331 332 332 331 330 329 330 331 331 330 329 330 330 328 327
340 340 341 341 341 341 341 340 340 340 340 340 340 339 339 339 339 339 338 339 338 339 339 339 339 338 338 338 337 336 335 335 336 336 337 337 337 337 336 336 335 335 335 335 335 335 335 335 335 335 335 334 334 333 333 334 333 333 332 331 331 331 332 331 333 335 335 333 332 331 331 331 331 331 331 330 330 330 331 330 330 331 330 329 329
338 339 339 339 340 340 340 340 339 340 340 340 340 340 339 339 339 339 339 339 339 338 338 337 337 337 337 337 337 336 336 336 336 336 336 335 336 336 335 335 335 335 335 335 334 334 334 335 335 335 334 335 334 333 334 334 333 332 332 331 330 330 331 331 331 333 335 335 333 332 331 331 331 331 332 331 331 330 331 331 330 330 330 330 329
337 337 336 337 337 337 338 338 338 338 338 338 338 338 337 337 337 337 337 336 336 335 334 334 334 334 334 334 335 336 337 336 336 336 334 334 334 334 334 333 334 335 335 335 335 334 335 335 336 335 335 334 331 331 333 333 333 333 332 332 331 330 330 331 331 331 333 334 334 333 331 331 331 331 331 332 331 331 331 330 330 329 330 331 330
337 337 336 336 336 336 336 337 336 336 335 335 335 335 335 335 335 334 335 334 334 334 334 334 334 334 334 334 334 335 336 335 336 336 334 334 334 333 332 331 333 335 335 336 335 335 335 335 336 335 335 334 331 330 333 333 333 333 332 332 331 330 330 331 331 331 332 334 334 333 332 332 331 331 330 331 332 331 331 330 330 330 330 331 330
335 336 336 335 335 335 335 335 334 333 333 332 333 333 333 334 334 334 334 334 335 334 334 334 334 334 334 334 334 334 334 335 335 335 334 334 334 334 332 331 332 332 333 334 335 335 335 335 335 335 334 333 331 331 333 333 333 331 331 332 331 331 331 331 331 331 332 333 334 333 332 332 331 330 330 331 332 331 331 330 330 331 330 330 330
Wind_Speed
19 21 21 18 16 15 15 16 16 17 16 16 15 14 14 14 13 13 14 15 16 17 19 20 21 20 20 21 21 20 18 17 15 15 16 17 18 19 18 18 17 16 16 16 16 15 15 15 15 14 14 14 14 15 18 20 22 23 20 19 20 21 21 23 24 24 24 24 24 23 22 20 21 21 21 21 21 21 21 22 22 23 24 24 23
21 20 21 19 17 15 15 15 16 16 16 16 15 14 14 13 12 13 13 15 16 17 19 21 21 20 20 21 20 19 18 16 16 16 17 18 19 19 18 18 17 16 16 15 15 15 15 14 14 13 13 13 13 14 17 20 21 21 19 18 18 19 21 23 24 24 24 24 24 24 22 21 21 21 21 21 20 20 20 21 21 23 23 22 23
25 22 20 19 16 15 15 15 16 16 16 16 15 14 13 12 11 12 12 14 16 17 20 22 21 21 21 21 20 18 17 16 16 17 17 17 18 18 18 17 16 16 15 15 14 14 13 13 13 13 12 12 12 13 16 19 20 19 18 19 19 19 20 22 24 23 23 23 22 22 22 21 20 20 20 20 20 20 20 20 20 21 21 21 22
27 24 20 19 17 16 15 15 15 15 16 16 15 14 13 11 11 11 12 13 16 17 20 22 21 21 21 20 19 18 17 17 17 17 17 17 17 17 17 16 16 15 14 14 13 13 13 13 12 12 11 10 11 11 14 19 19 17 17 19 19 19 19 21 22 23 22 21 20 20 21 20 19 18 18 19 19 19 19 19 19 19 19 20 21
28 24 21 19 18 17 15 16 15 16 16 16 16 14 12 11 10 11 12 13 16 18 21 22 22 21 20 19 19 17 16 17 17 17 17 16 16 16 16 16 15 14 13 13 12 12 12 12 11 11 10 9 9 11 14 18 18 15 14 17 17 17 17 17 20 20 19 18 17 17 18 19 18 16 17 17 17 18 18 18 18 18 19 20 20
27 25 22 20 18 17 16 16 16 16 16 17 15 13 12 10 10 10 11 14 16 19 21 22 22 21 20 19 17 17 16 16 16 17 17 17 16 16 16 15 15 14 13 12 12 11 10 10 9 9 10 9 9 10 15 16 16 15 13 14 14 13 12 11 11 10 9 13 15 14 15 16 17 16 15 16 17 17 17 17 17 17 18 18 18
26 25 22 20 19 18 17 17 17 17 17 17 15 13 11 9 10 9 11 14 16 19 21 22 22 21 19 18 16 16 15 15 16 17 17 17 16 16 15 15 14 13 12 11 11 10 10 9 9 9 9 10 10 11 15 15 15 16 14 11 11 9 7 5 5 3 3 11 14 12 14 15 17 16 14 15 16 17 17 17 17 16 17 17 18
25 24 21 21 19 18 17 18 17 18 18 17 15 13 10 9 9 9 11 14 16 19 21 21 21 20 19 16 15 15 15 14 15 16 16 16 15 15 14 14 12 11 10 10 10 9 9 8 8 8 8 9 10 13 16 15 15 16 13 10 9 7 6 7 11 9 11 15 13 12 14 15 16 15 14 14 15 15 16 17 16 16 16 17 17
24 21 19 20 19 18 17 18 18 18 18 17 14 12 10 9 8 9 12 15 17 20 21 21 20 19 17 15 14 15 14 13 14 15 15 15 14 13 13 12 11 9 8 8 9 9 8 7 7 6 6 8 11 15 17 16 15 14 12 10 9 8 10 14 18 19 19 18 16 15 15 14 15 15 13 12 13 14 14 15 16 15 15 16 17
25 20 18 19 19 18 18 18 18 18 17 16 14 12 10 9 8 10 14 17 18 20 20 18 18 18 16 15 14 14 14 14 15 15 14 14 13 12 11 10 9 8 7 8 9 9 8 6 5 5 6 8 12 16 17 17 16 14 12 11 10 11 14 16 18 20 20 19 17 16 14 13 15 15 13 12 13 14 15 15 15 14 13 14 15
24 19 17 19 19 18 19 19 18 18 17 15 14 12 11 10 9 12 16 18 19 19 17 16 16 16 15 14 14 14 13 14 14 14 14 13 12 10 10 9 7 7 7 8 8 9 7 5 5 6 8 10 13 16 18 18 17 15 12 10 10 12 14 16 18 18 17 16 16 15 14 14 15 14 13 13 13 14 15 15 14 13 13 13 14
23 19 17 19 20 19 20 18 18 17 17 16 13 11 11 10 10 14 18 20 20 18 16 16 16 16 15 14 13 13 13 13 14 14 13 12 11 10 10 8 7 7 7 7 7 8 8 7 7 8 9 12 15 17 18 18 17 14 12 10 11 14 15 17 19 18 15 16 17 16 16 15 14 14 13 12 12 13 14 14 14 13 13 13 13
24 20 18 21 21 20 19 18 18 17 17 15 13 11 11 11 12 16 18 19 18 17 17 16 16 16 16 14 13 12 12 13 13 13 12 11 9 10 9 6 6 6 6 6 6 8 8 8 9 9 10 14 17 18 18 16 15 13 12 11 13 17 18 18 18 17 15 16 17 17 16 15 14 13 13 12 11 12 12 13 13 13 13 13 14
24 20 20 22 22 21 20 19 18 17 16 14 12 11 12 12 13 16 18 17 16 18 19 16 16 17 15 14 12 12 12 12 12 12 11 10 9 9 7 5 5 5 5 6 6 8 9 8 9 9 12 16 18 18 17 15 13 12 12 13 14 16 17 18 15 12 12 12 14 16 17 15 13 13 13 12 11 11 12 12 12 12 12 13 13
23 20 22 23 23 22 21 19 18 17 16 14 13 12 12 12 14 16 17 16 16 20 20 17 17 17 15 14 12 11 11 11 11 11 10 9 8 8 6 5 5 5 5 6 6 8 9 8 9 9 12 17 17 17 16 14 13 12 11 12 14 14 16 18 14 10 12 12 14 17 16 14 13 13 12 12 12 11 12 12 12 12 12 12 13
20 19 23 26 24 24 22 20 18 16 15 14 13 13 12 13 14 16 16 15 16 21 20 17 16 16 15 13 12 11 10 10 10 10 9 7 7 6 5 5 5 5 5 5 6 7 8 8 8 9 12 16 17 16 15 13 12 11 11 12 15 16 15 17 14 12 13 14 16 16 15 13 12 12 12 12 12 11 11 12 12 13 13 13 12
18 19 24 25 23 22 22 20 18 17 16 15 14 14 14 14 15 16 16 15 17 21 20 17 15 14 14 13 12 11 10 9 9 8 7 6 5 5 4 5 6 6 6 5 6 6 7 7 7 8 11 15 15 15 13 12 11 11 12 14 16 18 17 16 14 13 14 15 15 15 14 13 12 12 12 12 12 12 12 12 12 12 12 12 12
17 20 23 22 20 20 20 19 18 17 17 16 15 15 15 15 15 15 15 15 17 19 18 15 14 13 12 12 11 10 9 8 8 7 6 6 5 4 4 6 8 7 7 6 5 5 6 6 6 7 10 14 15 14 12 11 11 11 12 13 15 17 18 17 14 13 13 12 14 15 14 14 13 12 12 12 12 12 11 11 11 10 11 12 12
18 21 22 20 20 20 19 18 18 18 17 17 16 15 14 14 14 14 14 15 16 17 17 15 13 12 10 11 11 9 9 8 8 7 6 6 5 5 5 7 8 7 7 6 5 5 5 6 6 6 8 12 13 13 12 11 11 11 11 12 13 14 15 15 12 11 10 10 13 14 14 14 13 12 12 11 11 10 10 9 9 9 10 11 12
22 23 20 19 19 19 19 18 17 16 16 15 15 15 14 13 13 13 13 14 15 15 15 13 12 11 9 10 10 9 8 7 7 7 7 6 6 6 6 7 9 8 7 7 6 5 5 5 5 6 8 10 12 13 12 11 10 10 10 12 14 15 15 12 9 9 9 10 13 13 13 13 12 10 10 9 8 8 9 8 8 9 9 11 11
23 24 21 19 19 18 18 17 15 14 13 13 14 14 14 13 13 14 13 13 14 13 12 11 10 9 8 9 9 9 8 7 7 7 7 6 6 8 7 8 9 9 7 7 7 6 6 5 5 7 9 11 14 15 13 11 10 10 10 11 13 12 13 13 10 9 9 11 12 13 12 11 10 9 8 7 7 8 8 8 8 9 9 10 11
23 25 22 21 19 18 19 17 14 13 13 12 13 14 14 13 13 14 14 13 12 11 11 10 9 7 7 8 8 7 5 4 5 5 5 5 5 7 8 9 10 10 8 7 6 6 6 5 6 7 10 15 17 16 13 11 10 10 10 10 11 10 14 12 8 7 8 10 11 12 11 10 10 9 8 8 8 8 9 9 9 9 9 10 10
23 24 24 22 19 20 20 18 16 16 15 12 12 13 14 13 13 13 14 13 12 11 10 9 8 6 6 8 8 7 5 4 4 4 4 4 3 6 9 9 11 12 10 8 7 6 6 6 6 7 10 16 16 14 13 11 9 8 8 9 10 12 15 10 6 7 7 8 10 12 12 10 10 9 9 9 9 9 9 10 9 9 9 9 10
23 25 25 22 20 22 21 19 19 19 17 15 13 14 14 14 12 12 12 12 11 11 10 9 7 5 7 10 9 8 7 6 6 5 6 6 4 3 8 11 12 13 13 11 8 7 6 6 7 7 10 14 15 13 12 9 7 7 6 7 9 10 12 8 5 5 5 6 8 11 12 11 11 10 10 9 9 9 10 10 9 9 9 9 9
22 24 24 21 20 21 22 21 20 20 18 17 15 15 16 14 13 12 11 12 12 12 12 10 9 6 6 9 10 9 9 9 9 8 10 10 7 3 4 9 13 14 14 13 10 9 7 7 7 9 11 12 13 12 10 6 2 4 5 5 4 5 11 9 4 4 4 5 7 9 11 11 11 11 10 9 8 9 9 9 9 9 9 8 8
20 25 25 21 19 21 22 22 21 20 19 18 17 17 17 15 14 13 12 13 13 13 12 12 12 10 9 9 10 11 10 10 10 11 11 10 10 7 4 6 11 15 16 15 13 11 9 8 8 10 11 11 11 10 9 7 5 4 4 4 2 5 12 10 6 5 4 5 6 9 10 11 11 11 11 9 8 9 9 8 10 9 8 8 8
20 23 24 21 19 19 21 22 22 20 19 18 18 18 17 15 15 14 14 13 13 13 13 13 12 13 12 11 12 12 12 11 11 12 12 11 9 10 8 6 8 13 16 16 15 13 11 9 9 10 12 13 12 11 10 10 10 10 7 5 5 7 10 10 8 7 5 5 6 8 10 11 12 11 11 10 8 8 8 8 10 8 7 9 10
21 20 22 21 19 18 20 20 20 20 20 19 18 18 18 16 15 13 13 13 13 13 13 13 13 15 15 14 12 12 12 11 11 13 14 14 11 10 11 10 8 10 13 15 16 16 14 12 11 11 12 13 14 13 12 12 13 13 11 9 6 7 11 12 10 7 6 6 6 9 10 10 10 10 12 11 9 9 8 8 9 8 7 9 9
21 20 20 21 20 18 18 18 19 19 19 18 17 17 17 17 15 13 13 13 14 14 13 13 13 14 15 15 14 13 13 11 11 13 16 18 16 14 13 14 13 11 11 13 15 17 16 13 12 13 12 13 15 14 13 14 15 14 12 11 7 7 11 13 10 8 7 6 6 8 9 10 10 10 11 11 10 9 8 8 8 8 7 7 8
20 19 20 20 19 18 17 18 18 17 16 16 15 15 15 16 15 14 15 14 13 14 14 13 13 14 13 14 14 14 14 14 13 13 16 18 19 19 18 17 17 15 15 14 14 17 17 14 13 14 15 16 15 14 14 15 16 14 11 12 9 6 9 10 9 9 8 6 6 7 8 10 11 11 10 10 11 9 9 8 8 7 6 6 8
20 19 19 18 17 16 16 16 17 16 14 14 14 14 13 14 15 15 17 14 12 13 13 13 12 12 12 12 13 14 15 16 16 15 16 18 18 21 21 20 20 18 17 16 15 17 18 16 15 16 17 19 17 15 16 16 16 15 11 12 14 10 8 9 9 10 8 7 7 6 8 10 12 13 11 11 11 10 9 8 8 8 7 6 8
21 19 18 17 16 15 14 14 16 15 14 13 13 14 12 11 13 14 16 15 13 12 12 12 11 12 12 13 13 13 15 17 18 17 17 17 18 20 21 22 22 19 18 18 16 17 19 17 16 18 18 18 19 17 17 16 17 17 11 11 16 13 11 12 11 11 10 9 6 4 7 11 12 13 12 11 11 10 9 9 9 8 8 7 7
21 19 17 17 16 15 14 14 15 14 12 13 13 13 13 11 12 12 12 13 12 11 10 10 11 11 11 12 12 12 14 16 18 19 18 18 18 18 20 21 21 19 17 18 18 17 19 17 15 20 19 17 19 19 18 16 17 19 13 11 14 13 14 16 13 13 11 9 7 5 6 11 12 13 12 11 11 10 9 10 9 8 8 7 7
20 18 16 17 17 15 13 13 13 13 12 13 13 13 13 12 11 11 11 11 11 11 10 11 12 12 12 11 12 13 14 16 18 19 19 20 20 20 19 18 19 19 18 18 20 19 20 19 15 18 17 14 17 18 18 18 18 18 16 13 13 14 17 19 15 13 12 9 8 7 7 10 12 13 13 12 12 11 9 10 10 8 8 7 7
21 19 18 18 17 15 14 13 12 13 13 14 13 12 13 14 13 12 11 11 12 12 12 12 12 12 12 12 13 14 13 15 18 19 20 21 23 23 20 17 16 17 18 17 19 20 20 19 16 16 15 12 13 16 17 19 19 19 18 16 13 12 14 17 18 15 13 11 9 9 9 9 10 12 13 12 13 12 10 10 10 9 8 8 8
20 20 20 18 17 15 13 13 12 12 13 13 12 12 12 13 13 12 11 12 12 12 12 11 11 11 11 12 13 13 13 14 16 19 20 20 20 22 20 18 17 17 18 17 19 21 21 20 17 16 16 13 11 13 17 19 19 19 19 17 13 13 11 9 15 18 13 11 12 12 11 10 9 10 12 13 13 13 10 10 10 9 9 9 9
20 20 19 17 15 13 11 12 11 10 12 13 12 11 11 11 12 11 11 11 11 11 11 11 10 11 11 12 13 13 15 16 18 19 19 19 18 20 20 19 19 18 18 19 21 22 22 21 19 17 17 15 12 12 14 18 19 18 19 18 13 13 13 11 10 15 15 13 14 15 13 11 10 10 11 11 12 12 10 11 11 9 9 9 9
20 20 18 16 16 14 13 11 10 9 11 12 11 9 8 9 9 9 8 9 10 10 9 9 10 12 13 13 13 14 15 16 17 19 19 19 18 19 20 20 20 19 19 20 22 23 23 22 21 20 18 17 15 12 11 14 18 18 18 17 13 12 13 12 13 11 15 16 16 16 14 12 11 11 10 10 10 12 11 11 11 10 10 10 9
19 18 18 17 17 15 14 12 10 10 10 10 9 8 7 7 6 6 6 8 9 10 10 10 11 13 15 14 14 14 15 16 16 17 19 19 19 19 20 20 21 21 21 22 23 23 23 23 23 22 19 19 18 16 13 10 12 15 16 16 14 13 13 12 12 13 14 16 17 16 15 14 13 12 12 11 10 11 12 12 12 12 12 11 10
17 16 17 17 15 14 14 13 11 9 8 9 8 8 7 6 5 5 6 7 8 9 10 11 11 14 15 14 15 16 16 16 16 16 18 18 18 19 19 19 20 21 23 23 24 23 23 23 23 23 22 20 19 19 17 13 10 10 12 14 14 14 13 12 13 15 13 13 16 16 15 15 15 15 14 13 11 11 11 12 13 14 14 11 10
16 15 15 14 14 15 15 13 11 9 8 9 8 8 8 7 7 6 6 7 8 9 10 10 12 13 13 14 15 16 17 17 16 17 17 18 17 18 19 19 19 21 24 25 25 24 23 23 23 23 23 23 21 20 19 16 11 7 6 9 13 15 12 11 13 15 13 12 14 17 16 17 18 17 17 16 13 12 11 12 13 14 14 12 12
15 15 13 14 15 15 14 13 12 11 9 9 9 9 9 9 8 7 6 6 8 11 12 13 13 13 14 14 14 16 17 16 16 16 18 18 17 17 19 20 20 21 24 26 25 24 24 24 24 23 22 23 22 21 20 15 11 9 6 3 6 11 12 14 15 13 12 12 14 17 17 18 19 17 19 18 15 14 12 13 13 13 14 13 14
15 14 13 14 15 14 13 12 13 11 10 9 9 9 9 9 7 6 6 6 7 8 9 10 10 12 13 14 14 16 17 16 15 14 17 19 19 19 19 20 21 22 23 26 26 25 24 24 24 24 22 21 20 20 20 18 14 10 6 3 3 4 7 12 14 14 13 13 14 16 17 18 19 17 20 20 17 15 14 14 13 13 14 13 15
15 14 14 14 14 13 12 11 11 10 9 9 8 8 7 7 6 5 4 4 5 5 7 8 9 11 12 14 15 15 16 16 13 13 16 20 22 22 22 21 21 22 23 25 27 27 26 26 25 24 22 20 19 19 20 20 18 13 6 2 2 3 3 7 11 13 12 12 14 16 18 19 19 18 20 20 17 16 16 15 14 14 14 14 15
14 13 12 13 12 11 11 10 9 8 7 6 6 6 5 5 5 5 3 3 4 5 8 10 10 11 13 16 16 15 15 14 13 15 18 21 24 24 23 22 22 22 24 26 27 28 28 28 27 26 25 23 21 19 18 19 21 21 13 5 3 2 2 4 8 9 11 14 15 14 16 17 18 19 20 19 18 17 17 17 16 16 16 16 16
13 12 12 12 11 9 9 8 7 6 5 5 5 5 5 5 6 6 5 4 4 5 7 8 8 10 12 15 16 13 13 14 16 19 20 21 23 24 23 23 22 22 24 26 28 28 28 29 28 28 28 28 24 18 17 19 21 23 23 16 8 5 4 6 5 4 8 13 14 13 14 16 17 18 19 19 18 18 18 18 18 18 18 18 17
13 11 12 12 11 9 8 6 5 4 3 4 4 4 4 3 3 3 2 1 3 4 7 8 10 11 11 13 13 10 10 14 18 20 20 19 21 23 22 23 25 24 24 26 28 29 29 29 28 28 29 29 27 22 19 19 20 22 25 23 15 8 9 10 5 3 5 7 10 13 13 14 16 18 18 18 18 18 19 19 19 18 19 20 19
11 10 10 9 9 8 7 6 6 5 3 2 2 1 1 1 3 3 4 4 4 6 8 10 12 12 12 13 13 11 12 14 18 19 19 18 20 22 22 22 26 27 25 26 28 30 29 29 27 27 28 29 28 26 23 21 21 21 24 25 20 12 10 12 9 6 4 3 6 9 11 14 16 17 17 17 18 19 20 20 19 19 19 20 21
11 11 10 8 7 8 7 6 6 6 4 4 3 5 5 5 6 6 6 7 7 8 9 11 12 12 13 15 14 14 15 17 18 19 18 18 19 22 23 22 25 28 27 27 28 29 30 29 28 28 29 31 30 27 25 24 25 24 23 24 22 16 13 14 14 10 5 4 4 4 9 12 13 17 19 18 18 19 20 19 19 20 19 19 22
12 12 10 7 5 5 4 3 4 6 7 6 7 8 9 8 8 8 8 8 8 9 10 11 12 13 14 15 15 15 16 17 17 17 18 18 19 21 23 23 25 28 28 28 29 30 31 31 30 30 30 31 30 29 28 27 28 27 25 25 23 18 14 12 14 14 7 4 4 5 10 12 10 13 20 21 20 20 20 20 20 21 20 19 20
13 12 10 8 7 7 7 7 7 9 9 10 11 12 12 12 12 12 11 11 11 10 11 12 12 13 15 15 16 16 16 16 16 16 17 18 19 21 23 23 24 26 26 27 29 30 31 32 32 31 30 30 30 30 30 29 28 27 26 26 26 24 20 15 17 19 11 5 5 4 9 14 11 12 18 22 21 21 21 21 21 21 21 20 20
Wind_Direction
146 148 144 152 155 153 153 153 150 151 148 144 140 137 135 129 119 105 94 90 94 100 108 113 112 105 101 101 99 97 95 91 85 82 85 90 95 97 98 97 96 94 93 93 92 90 90 92 92 94 95 96 98 97 99 101 98 95 94 95 94 93 94 93 91 91 90 89 87 86 84 83 83 85 84 83 82 80 80 79 79 77 75 76 75
147 144 142 150 154 155 154 153 150 151 149 146 142 140 138 132 119 103 94 93 97 104 112 116 114 108 103 102 101 99 95 89 85 86 90 94 97 98 98 97 97 97 95 95 94 93 92 93 93 94 94 94 95 96 101 103 98 96 101 102 99 98 95 92 90 89 89 89 88 87 85 83 82 83 84 83 82 80 79 78 77 76 75 75 75
146 141 140 147 152 156 156 154 151 151 149 147 145 144 142 133 118 104 96 96 100 107 116 119 117 112 108 106 104 101 96 91 90 93 94 96 98 99 99 98 98 97 95 94 93 94 95 94 94 94 94 96 97 97 103 104 99 100 105 105 104 104 101 95 90 86 86 86 86 88 85 82 80 81 82 83 82 81 79 78 77 76 76 76 75
143 139 138 143 150 155 157 156 152 151 149 148 148 148 145 133 117 106 98 100 104 110 120 122 119 115 112 110 106 103 98 95 95 96 97 97 98 98 98 98 96 94 91 91 92 95 97 97 94 91 92 98 101 99 107 108 104 107 108 106 107 107 106 100 94 86 80 79 80 85 87 84 80 79 81 82 82 82 80 79 78 78 77 76 75
139 139 138 139 147 153 156 156 154 152 150 151 152 152 146 133 117 107 101 104 108 116 124 123 121 117 115 112 107 104 98 97 99 99 99 99 99 98 98 96 92 89 87 88 91 95 98 96 89 87 90 98 105 108 115 114 111 116 112 108 108 108 109 106 104 95 78 77 83 85 90 89 84 81 82 83 83 83 82 81 80 79 79 77 76
137 138 137 138 145 150 154 155 155 153 153 155 155 154 146 131 118 108 104 109 114 121 126 125 122 119 117 114 110 106 101 99 101 102 101 100 100 99 96 92 89 86 81 81 85 87 89 86 80 83 87 94 106 117 123 121 120 123 117 110 105 102 100 100 108 104 75 83 96 91 90 92 87 83 84 85 85 85 84 84 81 79 79 79 78
133 133 136 138 143 148 153 154 154 154 155 157 156 154 145 131 120 111 109 113 119 126 128 126 123 122 120 116 112 109 104 102 103 104 104 102 101 100 98 93 91 88 83 79 76 71 71 73 73 74 78 90 104 121 130 128 127 125 121 112 102 94 86 70 47 35 93 104 104 91 91 95 89 86 86 87 87 87 85 83 80 78 78 79 78
126 128 134 136 140 147 153 153 154 155 155 157 157 154 145 133 124 115 116 119 123 129 130 126 125 125 123 118 113 110 106 106 107 108 107 105 105 104 101 98 94 90 88 86 81 75 67 67 69 71 75 86 104 126 135 133 130 125 122 120 117 109 83 54 48 74 124 120 104 88 93 98 94 90 89 88 87 87 85 83 81 79 79 80 80
123 126 130 131 138 148 152 153 154 155 156 158 157 154 145 137 130 123 124 124 126 131 130 126 127 128 124 117 111 110 109 112 113 112 111 110 109 107 102 97 91 85 82 80 80 79 70 64 64 70 79 83 103 125 133 133 131 126 122 117 110 95 75 68 77 98 118 115 101 95 99 100 94 91 88 86 84 84 86 85 84 82 82 83 83
127 127 127 130 140 151 152 151 153 155 157 158 158 155 147 143 136 131 131 127 129 130 125 123 127 127 121 115 113 113 114 117 119 117 114 112 112 109 102 95 87 80 74 72 75 77 75 72 69 77 83 87 104 120 128 130 130 128 120 106 89 76 72 79 90 103 112 110 104 103 105 100 93 90 87 84 83 84 84 85 85 85 85 86 87
130 129 128 132 142 151 151 152 154 156 159 160 163 161 153 149 142 138 135 131 130 126 120 121 125 124 119 117 118 117 117 120 121 119 116 117 117 109 99 92 84 77 70 69 76 83 86 79 74 83 89 100 111 121 128 130 130 128 119 101 85 72 73 89 100 104 107 106 102 100 100 96 91 90 89 88 88 86 85 85 85 85 85 85 87
130 130 130 136 144 150 151 154 156 159 163 164 169 166 158 150 144 143 138 135 131 125 124 126 127 124 121 122 123 120 121 123 124 123 120 119 115 106 96 90 85 78 71 71 75 77 79 70 69 84 100 114 120 127 131 132 131 127 118 100 78 68 76 97 109 110 108 105 102 100 100 97 92 93 93 91 90 88 88 87 85 83 83 83 84
130 132 135 142 147 152 154 158 160 163 166 169 172 165 156 146 143 145 141 138 133 131 134 133 131 130 127 128 128 127 127 127 127 125 123 121 113 104 94 90 91 82 76 77 69 67 72 66 68 86 111 126 129 132 134 134 133 125 110 91 76 74 83 103 114 115 114 114 112 108 105 103 100 98 95 93 91 89 90 89 87 85 83 83 83
131 135 141 147 150 155 158 161 164 166 170 172 170 160 151 141 142 147 145 141 136 141 141 139 140 137 135 134 136 136 133 131 128 128 127 127 119 107 92 92 101 91 88 86 70 66 69 64 67 89 121 134 136 138 137 136 131 118 98 83 81 83 93 107 116 119 116 118 119 116 111 109 106 100 96 94 91 89 90 89 89 88 86 86 84
136 141 147 152 155 160 162 164 167 168 171 169 162 154 146 140 145 151 152 151 148 149 148 147 147 145 143 140 142 143 140 137 134 136 138 137 126 113 98 103 115 107 103 95 79 70 65 61 69 94 128 141 141 141 139 134 124 107 92 84 85 89 103 115 119 117 110 111 119 121 116 113 111 103 99 96 93 92 91 91 90 89 89 88 86
145 154 158 158 158 161 162 164 167 167 166 162 157 151 146 145 149 154 157 160 158 155 153 151 150 151 152 148 147 148 149 147 145 145 145 147 135 124 114 122 133 123 114 106 92 78 68 63 72 100 133 146 145 143 139 130 118 103 94 86 80 84 106 123 120 110 104 105 111 115 111 109 109 104 100 96 95 94 93 93 92 92 91 89 88
162 163 159 154 154 158 162 165 166 165 164 161 159 154 152 153 155 157 154 153 156 157 155 152 151 153 155 156 153 153 158 154 154 156 155 160 152 145 136 144 151 134 123 116 104 89 76 68 73 102 136 151 151 146 139 126 114 105 98 90 82 88 109 127 120 110 107 104 105 107 105 104 104 105 104 101 99 96 96 96 95 96 93 90 88
168 153 144 143 152 160 165 166 165 164 163 162 161 157 156 160 160 158 149 143 148 156 156 153 154 154 157 165 161 159 164 164 169 173 175 182 177 173 166 165 163 146 134 125 117 104 87 76 76 102 138 155 154 148 139 126 115 106 98 92 89 95 113 127 124 118 111 107 109 107 107 109 108 106 106 106 104 103 101 98 95 93 90 91 91
148 136 135 147 161 167 170 166 165 164 163 162 159 157 158 159 157 152 145 139 142 153 159 162 163 160 159 167 168 167 170 178 187 195 200 205 204 196 185 181 174 157 147 138 131 119 101 90 85 102 136 156 158 151 141 129 118 107 97 91 92 100 120 132 131 125 114 111 115 111 112 115 113 110 108 109 110 106 102 97 91 88 90 94 93
133 135 144 160 167 169 170 164 164 165 163 162 157 155 156 152 150 149 147 143 140 146 155 163 169 172 170 172 178 180 182 191 202 214 220 226 228 216 198 191 188 172 161 153 144 135 123 108 102 108 127 150 156 151 142 130 118 108 102 96 92 100 125 143 140 127 115 116 120 117 115 113 110 110 111 113 111 103 98 95 92 90 92 97 97
137 144 155 164 169 168 161 160 161 161 159 159 160 155 151 150 151 152 153 150 144 142 145 148 158 173 178 181 189 194 202 209 221 229 231 239 240 230 214 202 200 188 178 169 156 148 143 128 122 119 126 142 147 144 138 126 117 111 106 101 86 93 131 146 139 123 110 118 124 121 117 111 109 110 110 109 107 100 99 99 96 96 95 100 102
147 148 158 164 167 162 154 157 155 153 152 155 162 155 150 152 155 158 158 156 152 146 144 143 149 162 171 177 179 185 200 202 216 226 227 245 250 241 227 212 208 199 193 185 170 160 157 152 141 128 132 142 143 140 136 126 119 113 109 107 84 95 142 148 137 125 110 119 122 118 115 112 115 113 109 106 104 101 101 105 101 100 99 100 101
152 150 157 163 165 159 156 159 153 154 156 156 157 151 150 151 157 163 161 160 159 155 150 147 150 156 161 163 154 155 178 184 197 222 230 251 263 243 232 221 213 207 203 196 187 177 170 169 162 146 142 148 147 141 136 126 117 116 117 120 99 113 151 158 144 132 117 123 124 129 131 123 121 116 110 108 108 104 101 106 106 103 101 103 106
156 155 156 161 165 161 163 163 158 159 160 161 153 147 149 149 155 160 159 161 163 160 151 146 154 162 159 159 160 165 190 206 208 219 223 241 270 247 232 226 217 213 209 203 194 188 187 185 180 169 156 155 155 149 143 131 116 121 121 129 115 124 160 172 156 137 120 130 137 146 145 133 126 118 113 111 110 106 101 105 109 108 106 105 108
158 157 157 162 166 167 170 166 163 163 161 163 154 149 151 149 154 155 156 161 165 162 153 157 174 192 183 173 180 188 201 210 210 210 215 235 256 256 239 233 223 216 212 209 203 200 201 199 198 191 175 168 168 166 168 174 165 137 135 147 128 148 182 189 182 161 136 138 146 151 146 136 132 125 122 119 112 108 103 107 111 109 107 105 102
157 159 162 166 167 170 172 167 164 163 162 163 156 153 153 154 158 157 160 164 166 165 164 171 183 197 202 196 197 204 209 211 209 208 211 229 247 249 255 249 229 219 215 212 210 211 212 212 215 208 199 196 195 194 201 222 241 227 191 183 183 188 193 196 195 182 157 145 147 152 148 137 132 130 127 123 118 115 106 106 114 112 105 103 100
154 161 166 169 168 171 173 170 167 164 163 163 159 156 157 160 163 167 172 171 170 174 180 182 187 197 205 209 208 212 217 218 217 212 212 217 235 244 243 244 224 215 216 215 215 216 216 217 225 225 219 221 225 224 232 246 245 245 234 197 179 190 205 208 195 183 164 149 149 155 151 138 135 135 132 130 126 124 117 105 114 117 104 102 101
151 157 167 172 172 174 175 173 172 170 167 165 162 159 162 168 171 178 178 176 180 187 193 191 195 205 211 219 220 223 226 227 227 220 217 214 219 231 234 238 226 208 211 216 219 220 217 216 222 231 232 234 239 239 255 266 247 242 232 200 194 217 222 209 191 181 167 152 153 159 155 147 144 138 133 135 133 130 127 114 117 121 114 112 110
150 155 166 173 175 177 176 174 174 172 170 168 166 162 166 176 184 187 183 184 193 201 207 204 210 218 219 225 229 232 234 236 235 228 224 220 219 222 227 235 235 222 212 214 221 223 219 216 221 228 235 243 247 246 265 268 244 239 230 205 206 220 208 199 191 181 172 159 159 165 162 155 144 138 136 137 140 137 129 121 125 128 128 126 119
150 156 164 171 174 177 177 175 174 171 169 171 169 166 169 181 192 194 193 195 199 206 215 214 219 225 226 232 237 237 239 242 241 235 232 229 228 230 232 235 238 233 223 220 226 226 219 213 221 229 234 244 249 250 260 261 241 234 226 206 197 187 183 193 196 185 177 170 166 167 168 162 151 151 151 148 148 140 130 129 133 135 136 128 122
149 155 160 166 169 173 180 179 178 173 169 171 171 173 176 186 196 199 203 206 206 209 214 214 218 229 236 238 240 238 239 243 242 239 237 237 238 238 239 240 241 235 228 226 226 227 228 226 229 231 235 240 242 246 255 258 242 231 229 217 204 189 179 194 203 195 186 178 172 171 179 173 160 162 165 160 151 138 137 140 139 140 142 132 126
150 154 158 163 164 168 178 180 182 182 174 164 162 172 180 188 197 203 209 213 219 219 217 218 220 232 242 240 241 240 237 241 242 242 242 243 247 246 244 242 243 238 231 229 225 226 235 242 239 233 237 236 231 237 247 253 242 229 235 231 214 206 199 201 207 204 194 183 178 175 183 180 169 170 172 162 149 142 147 147 142 142 144 142 136
151 156 161 164 163 164 172 177 183 184 172 161 161 174 179 182 195 203 211 218 224 227 227 230 228 233 239 239 242 241 237 241 245 247 251 252 252 253 250 244 242 240 238 235 231 230 237 246 240 229 232 232 227 232 241 247 242 230 234 241 226 221 211 204 206 204 194 186 183 173 174 181 181 181 176 162 151 152 156 150 146 147 149 150 145
149 157 161 159 160 162 169 172 176 173 167 170 174 178 180 183 196 207 215 222 228 232 237 238 234 235 236 239 243 240 239 245 250 251 253 254 252 252 253 250 244 240 241 239 235 235 239 243 237 223 223 227 228 231 237 243 243 235 239 253 243 227 212 202 202 201 193 190 191 181 170 176 183 186 181 168 160 166 168 155 150 152 155 156 153
148 154 156 155 158 163 167 166 170 174 174 179 181 182 185 188 197 207 213 222 230 236 239 235 234 234 233 240 246 246 245 248 254 254 250 250 250 249 250 252 247 238 238 239 237 238 241 241 234 221 216 220 231 236 241 242 243 242 245 256 254 231 217 207 198 195 193 195 197 191 177 171 178 186 188 180 171 178 178 160 155 157 156 159 158
145 148 150 153 158 160 166 168 171 182 184 182 185 191 194 194 197 203 211 221 229 234 235 233 235 236 236 242 244 246 248 247 252 254 250 248 247 246 245 247 246 240 239 241 240 238 240 241 236 229 224 221 230 241 247 246 245 247 247 257 260 234 236 243 205 189 191 203 199 192 184 176 178 184 187 186 182 185 183 167 164 166 160 159 157
138 138 141 144 147 148 154 162 165 175 181 181 186 195 199 201 205 209 214 221 230 232 230 231 237 243 245 244 242 244 247 248 252 254 252 250 248 248 247 245 243 241 242 242 241 240 240 242 240 237 235 231 232 238 248 251 250 250 251 261 266 234 233 272 247 192 183 195 196 191 189 185 184 184 181 186 188 186 183 174 175 177 166 160 159
132 134 137 135 137 141 140 143 149 157 169 176 181 188 194 200 209 219 220 227 239 240 237 239 246 254 255 251 248 248 247 248 252 255 254 254 252 250 248 245 241 239 242 243 243 243 241 242 243 239 236 235 237 238 244 249 248 249 254 257 259 238 225 254 267 221 187 186 193 193 190 189 190 189 183 184 186 182 183 180 182 180 163 162 166
132 135 138 137 138 144 141 138 143 147 156 166 168 171 178 187 198 208 215 225 233 235 239 244 251 260 261 258 255 252 252 252 253 252 250 251 250 247 246 245 241 239 240 242 243 243 241 240 242 239 234 235 238 240 240 241 244 248 254 253 251 241 235 253 259 233 205 188 188 191 188 189 193 192 191 191 181 176 179 178 177 168 163 173 175
133 134 136 138 136 138 139 139 142 142 147 154 162 173 178 187 199 207 217 225 231 236 239 243 250 258 260 258 254 251 250 250 249 246 243 245 245 245 246 246 245 241 239 240 242 242 242 240 239 238 236 238 240 240 241 243 249 254 256 255 250 236 236 262 247 217 216 204 187 187 187 187 189 190 195 198 184 175 174 169 168 164 169 181 176
134 136 137 140 139 139 140 140 143 145 147 155 168 180 183 191 204 219 233 246 258 250 240 242 248 254 256 253 252 248 244 243 243 241 242 243 244 247 250 249 248 244 240 242 243 244 245 245 243 241 240 240 239 238 241 244 244 245 253 253 248 237 233 251 237 210 214 217 190 182 182 180 184 191 197 199 190 182 176 166 165 166 173 178 173
137 141 142 142 142 141 139 138 145 152 154 159 169 175 182 189 191 201 216 233 246 241 237 241 247 251 249 249 251 248 243 243 242 242 243 244 245 249 253 252 250 246 243 242 243 245 247 248 246 243 242 240 237 236 236 236 230 220 213 208 235 239 231 231 227 209 203 212 196 181 181 181 182 187 192 195 194 190 183 173 168 166 174 179 177
137 140 141 140 139 137 138 141 147 152 154 158 167 177 190 202 203 212 224 228 231 233 237 242 251 254 250 250 250 245 243 245 247 248 247 247 247 247 249 251 251 249 246 242 241 242 244 246 244 242 240 239 238 236 233 232 223 209 195 188 195 208 225 228 224 214 199 202 203 188 184 188 184 182 187 192 196 195 187 182 178 173 177 184 185
137 137 142 145 143 139 140 145 147 153 160 163 171 182 193 205 212 224 242 252 248 244 248 248 253 257 258 258 250 244 248 251 254 256 252 249 248 246 245 247 249 250 249 245 241 240 240 242 241 239 235 233 234 231 230 230 220 204 177 146 159 151 207 223 216 216 203 199 209 195 186 190 187 185 189 191 196 200 193 188 189 186 186 189 192
130 130 135 141 140 135 136 140 144 153 163 168 177 184 182 184 194 205 211 234 246 247 254 257 260 263 263 262 257 254 258 258 258 256 249 245 245 247 247 248 250 250 250 248 246 243 242 241 239 237 233 229 229 226 223 224 221 218 208 178 144 173 216 193 192 211 210 208 212 198 189 193 191 192 195 194 197 201 198 193 192 195 197 197 197
102 105 108 117 121 121 130 139 146 155 162 170 180 184 184 186 195 204 205 221 246 261 271 278 289 285 274 271 268 264 265 263 260 258 253 246 246 250 253 255 257 255 253 252 250 248 246 243 240 237 235 232 229 223 216 217 222 224 220 214 210 197 164 152 156 189 203 211 212 199 195 197 196 198 199 199 198 199 199 197 198 201 203 203 203
87 93 92 95 99 99 105 111 117 139 167 183 189 191 199 210 213 211 204 271 285 302 311 312 315 311 303 294 283 273 276 270 263 265 264 256 253 256 258 259 260 260 258 255 253 251 249 246 243 239 238 235 228 222 215 210 214 220 220 219 216 195 162 162 173 176 176 203 208 199 200 201 201 202 202 201 198 196 197 198 202 202 200 206 209
85 86 80 79 79 70 70 71 67 73 84 99 107 87 50 15 14 17 20 11 349 342 338 326 324 324 324 321 309 296 300 295 282 277 272 263 260 260 259 257 257 256 254 254 255 253 250 247 245 242 239 236 229 224 218 208 206 212 214 214 214 207 186 184 203 206 162 169 194 195 202 203 204 205 205 202 197 197 197 197 200 198 198 204 205
81 73 65 60 55 48 51 52 45 45 44 48 42 23 18 16 19 22 18 12 360 350 341 330 329 331 330 333 330 316 314 316 307 294 284 275 269 265 264 259 255 253 250 250 252 251 249 246 243 241 238 236 234 229 222 214 211 210 209 209 210 208 199 198 210 214 184 161 176 185 192 196 204 209 211 208 199 200 203 200 197 197 201 202 198
81 78 70 58 55 43 30 29 43 52 49 43 37 29 22 17 15 14 6 360 349 338 334 332 335 338 335 336 336 329 321 320 317 309 302 296 285 276 273 266 256 253 251 250 249 247 247 245 241 240 237 235 235 232 226 219 216 213 210 206 201 200 199 197 206 207 191 164 175 182 183 185 194 205 213 215 204 201 207 204 197 198 203 203 198
82 82 75 60 51 40 34 46 57 56 47 36 33 30 27 25 23 20 16 11 2 352 347 347 347 346 343 341 341 339 333 328 325 320 314 307 298 288 281 274 264 260 258 256 252 248 247 244 239 237 239 238 236 232 228 223 219 215 212 209 204 201 198 193 195 194 185 162 163 172 187 192 193 193 207 214 206 201 204 205 203 202 200 201 203